Location: Boiro
(42.6475°N, 8.8834°W)
Time: 11:09:35
(UTC+02:00)

CUBESAT XI-V - Visible Passes

Search period start: 11 September 2024 00:00
Search period end: 21 September 2024 00:00
Orbit: 654 x 677 km, 98.2° (Epoch: 10 September)

Date Brightness Start Highest point End Pass type
(mag) Time Alt. Az. Time Alt. Az. Time Alt. Az.
11 Sep ? 03:31:23 11° NNE 03:31:23 11° NNE 03:31:34 10° NNE visible
11 Sep ? 05:09:31 12° NNW 05:09:31 12° NNW 05:09:56 10° NNW visible
12 Sep ? 04:03:18 13° NNE 04:03:18 13° NNE 04:03:58 10° N visible
13 Sep ? 04:35:11 13° N 04:35:11 13° N 04:35:44 10° N visible
14 Sep ? 05:07:03 10° NNW 05:07:03 10° NNW 05:07:07 10° NNW visible
15 Sep ? 04:00:47 11° N 04:00:47 11° N 04:01:01 10° N visible
16 Sep ? 04:32:39 11° N 04:32:39 11° N 04:32:48 10° N visible
